Preview of NWS' New Version of Forecast
This preview is not operational and should not be used for support decisions.

Regional Weather Roundup (RWR)

Issued by National Weather Service (NWS)

                            
000
ASUS44 KJAN 210910
RWRMS 

MISSISSIPPI HOURLY WEATHER ROUNDUP
NATIONAL WEATHER SERVICE JACKSON MS
300 AM CST THU FEB 21 2019

NOTE: "FAIR: INDICATES FEW OR NO CLOUDS BELOW 12,000 FEET WITH NO
SIGNIFICANT WEATHER AND/OR OBSTRUCTIONS TO VISIBILITY.

MSZ001>002-007>008-010>013-018>021-025>028-034>036-211000-
NORTHWEST MISSISSIPPI
  
CITY           SKY/WX    TMP DP  RH WIND       PRES   REMARKS
BATESVILLE     FAIR      30  30 100 CALM      30.08R FOG              
CLARKSDALE     CLOUDY    34  34 100 CALM      30.10R FOG              
CLEVELAND      FAIR      38  38 100 NE3       30.08S                  
GREENWOOD      FAIR      40  38  93 NE6       30.07R                  
GREENVILLE     FAIR      38  37  97 N5        30.07R WCI  34          
OLIVE BRANCH   FOG       32 N/A N/A CALM      30.08S VSB 1/2          
TUNICA           N/A     34  34 100 CALM      30.11R FOG              
WINONA         PTSUNNY   43  43 100 N7        30.05F                  
$$

MSZ003>006-009-014>017-022>024-029>033-037>039-211000-
NORTHEAST MISSISSIPPI
  
CITY           SKY/WX    TMP DP  RH WIND       PRES   REMARKS
ABERDEEN       CLOUDY    46  46 100 N10       30.09R                  
COLUMBUS AFB   CLOUDY    47  44  88 NW9       30.06R                  
CORINTH        FAIR      41  41 100 CALM      30.09R                  
GOLDN TRIANGLE CLOUDY    47  45  93 N7        30.07R                  
STARKVILLE     CLOUDY    45  45 100 N5        30.08R                  
TUPELO         MOCLDY    44  41  89 N9        30.06S                  
$$

MSZ040-058-211000-
CENTRAL MISSISSIPPI
  
CITY           SKY/WX    TMP DP  RH WIND       PRES   REMARKS
JACKSON INTL   CLOUDY    51  46  83 NE3       30.06R HAZE             
JACKSON HAWKNS CLOUDY    51  47  86 CALM      30.07R                  
MADISON        PTSUNNY   48  48 100 CALM      30.05R                  
MERIDIAN KEY   LGT RAIN  54  51  90 N8        30.02F                  
MERIDIAN NAS   TSTM      52  51  97 N7        30.04F FOG              
RAYMOND          N/A     50  50 100 CALM      30.06R                  
VICKSBURG VKS  CLOUDY    48  48 100 N5        30.04F                  
$$

MSZ059>079-211000-
SOUTH MISSISSIPPI
  
CITY           SKY/WX    TMP DP  RH WIND       PRES   REMARKS
HATTIESBURG    CLOUDY    57  55  93 CALM      30.01S                  
LAUREL         CLOUDY    54  54 100 CALM      30.01S                  
MCCOMB         CLOUDY    54  51  90 N6        29.99F FOG              
NATCHEZ        CLOUDY    50  47  89 NE5         N/A                   
PINE BELT      NOT AVBL                                               
$$

MSZ080>082-211000-
COASTAL MISSISSIPPI
  
CITY           SKY/WX    TMP DP  RH WIND       PRES   REMARKS
BILOXI         CLOUDY    66  66 100 CALM      29.97F FOG              
PASCAGOULA     FOG       69  67  93 CALM      29.98S VSB 1/4          
GULFPORT       FOG       68  67  96 CALM      29.97S VSB 1/2          
$$

LAZ007>009-015>016-023>026-211000-
NORTHEAST LOUISIANA
  
CITY           SKY/WX    TMP DP  RH WIND       PRES   REMARKS
BASTROP        CLOUDY    40  39  97 CALM      30.07F                  
TALLULAH/VBURG CLOUDY    49  45  86 NE6       30.05S                  
VIDALIA        CLOUDY    51  47  83 NE6       30.03R THUNDER          
$$